TimeCDT,TemperatureF,Dew PointF,Humidity,Sea Level PressureIn,VisibilityMPH,Wind Direction,Wind SpeedMPH,Gust SpeedMPH,PrecipitationIn,Events,Conditions,WindDirDegrees,DateUTC
12:53 AM,59.0,55.9,90,30.09,10.0,Calm,Calm,-,N/A,,Clear,0,2013-04-09 05:53:00
1:53 AM,55.9,54.0,93,30.06,10.0,Calm,Calm,-,N/A,,Clear,0,2013-04-09 06:53:00
2:53 AM,57.0,55.0,93,30.06,10.0,Calm,Calm,-,N/A,,Clear,0,2013-04-09 07:53:00
3:53 AM,57.0,55.0,93,30.06,10.0,Calm,Calm,-,N/A,,Clear,0,2013-04-09 08:53:00
4:53 AM,57.0,54.0,89,30.07,10.0,Calm,Calm,-,N/A,,Clear,0,2013-04-09 09:53:00
5:53 AM,57.9,55.0,90,30.08,10.0,Calm,Calm,-,N/A,,Clear,0,2013-04-09 10:53:00
6:53 AM,57.0,54.0,89,30.10,10.0,Calm,Calm,-,N/A,,Clear,0,2013-04-09 11:53:00
7:53 AM,63.0,57.0,81,30.11,10.0,East,5.8,-,N/A,,Clear,100,2013-04-09 12:53:00
8:53 AM,69.1,59.0,70,30.12,10.0,SE,4.6,-,N/A,,Clear,130,2013-04-09 13:53:00
9:53 AM,75.9,60.1,58,30.14,10.0,SE,6.9,-,N/A,,Clear,130,2013-04-09 14:53:00
10:53 AM,80.1,60.1,50,30.14,10.0,SE,9.2,17.3,N/A,,Clear,140,2013-04-09 15:53:00
11:53 AM,82.9,57.0,41,30.14,10.0,SSE,11.5,21.9,N/A,,Clear,150,2013-04-09 16:53:00
12:53 PM,84.0,55.9,38,30.13,10.0,South,10.4,17.3,N/A,,Clear,180,2013-04-09 17:53:00
1:53 PM,84.0,55.0,37,30.12,10.0,SE,6.9,-,N/A,,Partly Cloudy,130,2013-04-09 18:53:00
2:53 PM,84.0,53.1,34,30.10,10.0,East,3.5,-,N/A,,Clear,90,2013-04-09 19:53:00
3:53 PM,84.9,55.0,36,30.09,10.0,South,10.4,-,N/A,,Clear,190,2013-04-09 20:53:00
4:53 PM,84.9,55.9,37,30.08,10.0,Variable,6.9,-,N/A,,Clear,0,2013-04-09 21:53:00
5:53 PM,82.0,55.9,41,30.07,10.0,ESE,6.9,-,N/A,,Clear,120,2013-04-09 22:53:00
6:53 PM,79.0,55.9,45,30.08,10.0,SSE,8.1,-,N/A,,Clear,160,2013-04-09 23:53:00
7:53 PM,75.0,55.0,50,30.09,10.0,SSE,3.5,-,N/A,,Clear,150,2013-04-10 00:53:00
8:53 PM,71.1,55.9,59,30.11,10.0,South,5.8,-,N/A,,Clear,180,2013-04-10 01:53:00
9:53 PM,68.0,55.9,65,30.11,10.0,Calm,Calm,-,N/A,,Clear,0,2013-04-10 02:53:00
10:53 PM,66.0,55.9,70,30.09,10.0,Calm,Calm,-,N/A,,Clear,0,2013-04-10 03:53:00
11:53 PM,63.0,57.0,81,30.10,10.0,Calm,Calm,-,N/A,,Clear,0,2013-04-10 04:53:00